Location: Baumgarten
(49.0970°N, 12.7493°E)
Time: 08:33:15
(UTC+00:00)

Cosmos 2218 Rocket - Pass Details

Date: 05 July 2020
Orbit: 955 x 1007 km, 82.9° (Epoch: 04 August)

Event Time Altitude Azimuth Distance (km) Brightness Sun altitude
Exits shadow 22:50:53 29° 182° (S) 1,751 4.7 -18.1°
Maximum altitude 22:54:24 83° 97° (E) 1,008 4.0 -18.1°
Drops below altitude 10° 23:00:45 10° 11° (N) 2,753 7.5 -18.2°
Sets 23:03:15 0° 11° (N) 3,698 8.6 -18.2°
